Theta_e
315 311 311 312 312 309 307 308 307 311 314 316 317 316 315 314 313 311 310 310 309 309 309 311 313 310 310 311 310 307 313 312 313 312 313 309 310 307 306 306 305 305 305 306 307
314 311 311 312 312 308 307 307 307 310 313 315 316 316 315 315 312 311 310 309 309 309 310 311 310 308 308 309 310 310 311 312 310 309 311 309 308 308 309 307 306 305 304 306 306
313 311 311 311 311 308 306 307 308 309 312 314 316 316 315 315 311 311 311 311 310 310 310 310 310 309 311 309 310 310 312 310 310 309 309 309 307 307 307 310 308 309 307 304 306
314 311 311 311 310 308 307 307 308 309 311 313 313 316 315 313 313 311 314 317 315 311 310 309 309 312 311 312 307 312 309 309 309 309 309 309 307 307 306 310 307 305 303 301 302
314 311 310 309 308 307 307 307 308 309 311 313 313 316 314 309 311 311 313 317 313 310 308 308 310 311 314 311 308 308 308 307 306 306 306 305 307 307 306 306 304 303 303 305 305
314 310 309 307 307 307 308 308 308 309 311 313 313 316 313 314 311 311 315 315 311 309 307 307 308 308 311 309 309 307 306 306 305 306 305 307 307 306 307 304 304 306 309 306 305
312 310 308 305 306 306 307 309 308 309 311 314 314 316 311 314 311 312 316 312 310 308 306 307 307 310 309 311 306 305 307 306 310 307 309 305 308 306 306 305 310 308 306 305 304
312 310 307 304 305 306 307 309 310 310 311 312 315 315 313 312 312 316 313 313 309 308 307 306 307 306 307 306 306 308 308 313 311 308 310 311 314 311 308 309 309 307 306 304 304
312 310 306 303 304 304 307 309 311 309 312 312 314 313 314 314 315 314 313 309 308 307 305 305 305 305 306 308 310 309 313 312 310 307 308 312 313 311 310 308 308 308 306 304 303
313 310 305 302 303 304 306 309 310 310 310 314 313 311 313 313 313 312 310 307 307 305 307 306 304 307 306 311 314 314 311 310 310 309 308 310 311 311 307 306 308 305 304 303 301
313 309 303 302 302 304 306 307 307 307 308 312 311 311 312 313 311 310 308 306 306 306 309 306 305 312 311 309 309 309 309 310 310 309 310 311 311 308 305 306 306 304 304 302 299
313 309 302 301 302 305 306 313 311 309 313 310 312 311 312 311 309 309 308 311 308 310 308 309 307 310 308 308 310 310 310 311 311 310 310 309 308 306 302 304 303 301 303 299 299
312 308 300 300 304 306 308 309 310 310 310 308 310 312 312 307 308 308 305 307 309 312 310 311 309 308 310 310 311 310 310 310 310 309 307 306 303 303 304 304 300 298 299 297 298
312 306 299 300 304 307 310 307 310 309 309 311 313 311 307 306 308 304 303 308 310 312 309 308 308 310 309 310 308 312 308 308 307 303 303 303 302 305 305 304 299 295 295 296 296
311 305 298 300 301 309 306 308 310 304 320 312 313 308 306 308 307 309 305 306 309 307 303 300 309 308 309 308 308 310 307 306 304 304 303 303 305 305 302 300 298 295 295 295 297
311 303 297 303 303 307 306 311 305 314 321 311 313 310 309 305 307 306 305 303 304 307 305 304 303 306 307 308 305 305 302 303 304 303 308 304 299 299 303 299 295 294 294 294 295
311 301 297 302 304 307 309 303 313 318 313 312 310 310 307 306 308 306 305 305 306 301 307 306 307 306 304 304 303 298 303 302 302 302 304 298 296 297 297 299 293 293 293 293 293
311 298 301 303 306 306 306 304 313 315 314 309 311 309 308 305 307 304 301 301 301 306 306 306 301 305 302 305 303 298 303 300 300 299 296 296 298 301 293 293 293 293 293 293 293
310 299 303 305 306 308 298 303 313 310 308 309 307 304 305 310 303 300 303 303 298 300 304 304 303 300 297 299 299 297 294 299 300 286 293 297 297 295 293 293 293 293 292 293 293
301 301 302 306 307 306 299 305 304 304 309 311 309 305 302 310 306 301 299 301 298 296 297 301 299 298 299 297 292 292 293 295 294 288 291 292 291 292 292 292 293 292 292 292 291
300 295 303 309 309 304 301 300 302 302 310 310 308 306 304 307 302 301 297 297 296 295 295 295 296 296 292 291 289 292 291 291 291 292 291 290 291 291 292 292 291 291 291 290 290
303 297 306 310 307 303 304 301 306 310 306 307 306 306 305 303 302 301 303 299 293 293 291 292 293 291 290 290 290 290 290 290 291 290 291 291 291 292 291 291 291 289 289 290 290
304 300 308 309 308 304 305 308 308 308 307 306 305 304 299 301 301 301 299 293 292 291 291 292 293 289 291 291 290 290 290 291 291 292 292 292 291 291 291 290 289 289 289 290 290
303 303 307 309 306 304 304 307 309 304 305 303 300 296 296 297 295 298 296 293 293 291 294 292 292 292 289 290 290 290 290 291 291 292 291 291 291 291 290 288 288 289 289 290 290
303 305 306 311 309 307 306 307 308 307 303 299 297 298 299 298 295 296 295 293 292 293 293 293 293 293 293 293 291 290 291 291 292 292 292 291 291 289 288 288 289 289 290 289 287
304 304 304 306 306 309 308 307 307 305 304 303 300 297 297 298 298 296 293 293 294 291 292 291 292 291 291 291 291 292 292 291 291 291 289 288 288 288 288 289 289 289 287 286 286
302 300 304 306 306 309 310 308 307 305 303 303 299 298 296 296 293 293 292 292 292 293 292 292 292 289 288 289 289 288 289 290 288 286 286 287 288 288 289 290 288 285 285 285 282
Wind_Speed
21 22 24 25 26 28 29 28 30 30 26 21 14 17 24 11 12 14 10 7 11 15 10 7 6 11 4 4 3 3 4 2 4 5 6 3 3 2 1 3 3 6 5 5 6
20 22 24 25 27 29 29 29 30 30 29 25 18 20 18 3 12 17 9 12 12 12 9 10 6 7 4 3 3 4 3 7 4 4 5 4 4 2 3 3 5 5 7 18 17
20 22 24 26 27 29 29 28 29 30 28 25 23 23 7 5 5 3 11 12 12 10 6 4 4 3 3 1 2 2 5 3 4 5 3 5 7 2 2 6 7 7 6 6 5
20 23 24 27 28 28 28 27 28 30 29 24 26 15 6 3 2 3 8 14 10 7 4 4 5 4 2 0 1 2 6 4 3 1 1 6 7 5 6 11 2 6 5 5 11
19 22 24 27 28 29 27 26 28 31 28 25 24 11 1 6 2 2 10 13 6 4 7 3 3 2 0 2 4 2 4 4 1 5 7 4 10 6 7 16 10 9 6 12 12
19 22 24 27 28 29 28 27 30 31 26 24 20 6 2 5 1 5 14 8 11 9 6 6 2 1 0 1 1 3 5 14 7 6 5 6 5 3 6 5 10 13 16 12 13
19 22 25 27 29 30 28 26 30 28 23 21 13 4 7 2 3 8 11 8 9 6 2 2 1 1 2 3 2 2 6 9 1 3 1 2 5 6 6 7 18 13 7 8 10
18 22 24 27 29 29 26 27 28 26 19 22 6 3 3 2 2 6 9 3 8 5 3 2 1 3 1 2 5 4 3 5 8 8 4 5 6 1 7 15 14 12 9 7 12
18 21 25 28 29 28 24 26 22 24 12 12 4 3 2 1 2 8 10 5 7 5 5 4 3 3 4 3 5 6 5 5 11 5 8 4 17 3 15 5 10 9 12 12 13
18 22 26 28 27 25 24 23 19 14 16 3 7 3 4 3 6 9 7 7 3 2 2 7 5 3 4 6 3 6 5 4 8 8 5 13 19 20 13 11 8 12 10 11 13
19 23 26 25 23 19 24 8 10 6 14 1 5 3 5 11 4 4 7 4 1 8 6 5 6 1 2 1 3 5 4 11 6 7 7 15 24 25 10 6 9 11 8 12 14
21 24 25 22 19 15 13 8 4 2 8 1 2 4 5 4 4 4 13 2 5 5 5 6 2 2 4 2 3 4 5 14 9 2 2 13 35 18 12 9 12 11 11 13 14
22 24 23 19 12 10 16 7 1 3 0 6 3 2 3 1 1 6 7 1 5 4 2 4 5 4 2 4 5 3 5 6 11 17 9 12 21 20 8 13 13 12 5 11 9
22 24 22 15 3 6 3 9 1 4 4 3 2 1 0 1 1 3 3 1 3 1 1 5 3 1 4 3 2 3 1 7 11 14 14 9 15 12 4 9 8 12 7 16 12
21 23 17 11 4 3 5 7 3 2 5 3 1 0 3 2 4 1 4 4 3 2 5 6 2 2 3 2 1 6 4 6 10 17 8 5 3 5 8 9 9 11 12 15 10
20 21 13 5 3 2 8 1 0 5 6 2 1 5 3 4 6 7 5 8 2 3 1 6 3 1 3 1 4 5 6 10 2 3 1 3 3 7 3 4 11 9 14 17 16
20 19 9 3 1 5 2 0 5 3 3 2 2 3 1 4 3 6 4 7 2 6 3 7 2 2 3 3 5 11 6 5 5 4 5 5 13 4 4 5 5 9 21 27 26
19 16 6 3 2 2 2 5 4 5 6 2 1 2 5 2 0 4 3 2 5 2 0 1 4 4 2 3 2 2 2 3 7 3 15 14 6 2 5 18 14 13 22 28 26
16 8 4 3 1 3 5 2 7 7 2 1 5 2 2 2 1 1 2 5 3 2 4 1 5 3 4 1 2 1 2 1 3 3 3 5 6 18 10 18 17 13 25 25 23
6 3 4 5 5 4 4 7 6 4 4 2 5 4 4 4 2 2 5 3 5 1 1 1 5 2 2 3 6 6 0 1 3 4 6 11 14 6 18 20 17 26 28 25 25
2 1 5 7 8 4 5 8 6 4 4 7 7 5 6 6 5 4 4 1 3 2 3 2 2 2 3 3 3 2 2 1 3 3 4 5 13 2 19 14 24 27 24 26 27
6 2 8 13 3 1 4 6 4 5 3 6 4 9 8 8 6 5 6 2 4 5 4 0 3 3 7 7 5 6 5 4 3 5 4 10 17 19 10 25 24 24 26 28 28
3 2 6 6 5 4 4 5 6 7 7 7 7 6 2 7 4 6 4 2 6 5 6 5 0 4 5 3 2 3 4 4 3 5 15 6 8 7 25 24 23 24 28 31 31
3 3 2 3 1 6 5 6 7 4 4 3 4 4 4 5 1 4 4 5 3 3 6 4 4 7 7 5 1 9 10 8 5 5 8 14 28 27 27 26 25 27 30 36 34
3 6 5 5 8 12 8 5 9 8 4 4 1 6 7 6 4 5 3 4 4 6 4 4 5 6 9 12 10 13 21 14 11 15 12 25 24 25 25 26 26 30 33 36 36
6 4 2 2 1 19 17 12 18 4 8 5 6 10 8 7 8 8 7 5 5 3 5 3 3 3 6 14 12 15 18 15 16 17 15 17 23 19 25 23 28 31 39 36 29
9 3 2 6 8 9 10 14 13 9 7 6 10 7 7 7 4 3 4 5 7 8 6 6 2 1 6 5 6 9 9 11 8 7 7 13 25 18 27 30 30 30 32 29 34
Wind_Direction
17 15 12 7 3 2 3 3 2 2 2 5 358 356 1 45 68 58 48 4 351 354 350 344 3 22 62 68 67 128 71 201 234 176 260 252 265 224 159 250 231 210 230 264 303
14 11 7 3 1 360 1 360 359 357 356 360 357 345 343 118 73 56 19 359 351 360 358 20 2 9 50 40 29 74 107 218 207 205 261 282 251 238 310 282 262 280 266 277 279
8 6 3 359 358 358 358 359 355 353 351 357 357 352 360 146 76 357 7 7 1 4 359 24 21 70 69 357 27 167 207 204 245 245 288 281 296 199 184 292 240 273 321 332 286
4 3 358 356 356 354 356 354 352 350 348 351 358 5 58 109 95 348 13 356 353 12 29 31 21 31 80 350 292 289 250 226 264 240 14 285 306 290 179 253 43 319 312 294 295
359 358 355 352 352 352 350 349 348 348 345 347 357 359 44 49 152 336 349 351 27 41 42 44 64 124 92 288 325 205 285 290 186 230 243 333 264 246 251 266 324 333 332 318 320
353 354 353 351 350 347 344 346 341 344 342 345 354 354 55 83 346 342 349 19 35 42 34 28 63 353 59 281 206 305 304 293 297 294 194 175 254 352 272 3 348 345 329 324 323
349 350 352 350 346 343 341 340 338 337 339 340 355 40 58 101 15 349 1 27 17 39 79 37 332 134 152 304 318 336 336 320 263 352 310 195 284 225 279 6 330 328 315 309 345
345 346 349 348 344 340 337 339 337 334 332 336 4 71 90 12 13 357 13 345 9 42 76 60 115 110 86 323 6 9 62 355 305 1 304 48 283 191 11 337 320 324 329 15 48
341 343 347 346 341 336 337 339 332 328 334 348 65 77 130 21 25 347 1 346 337 28 60 83 59 67 19 34 8 7 306 300 324 357 341 44 300 182 328 307 314 328 23 55 25
337 342 346 344 339 338 342 340 333 330 346 60 55 51 17 323 315 326 349 343 357 312 59 40 39 39 31 40 316 286 306 247 286 295 327 300 294 309 342 330 329 36 55 42 19
333 337 344 341 340 345 353 354 13 353 25 29 304 266 315 323 307 11 346 348 319 64 21 7 38 284 261 224 266 264 269 283 281 285 346 309 302 316 1 329 48 51 40 31 11
327 333 342 341 341 360 19 70 113 212 309 281 247 279 268 333 340 348 0 55 47 58 351 8 294 277 289 167 294 317 319 307 297 181 0 302 295 314 340 322 88 47 50 27 6
324 331 340 342 345 10 62 68 41 157 331 305 228 247 276 31 72 305 8 50 70 71 59 174 257 307 306 343 341 290 272 302 284 316 217 266 298 317 355 75 47 38 48 20 359
322 331 337 346 44 11 56 4 117 166 49 268 252 283 170 121 85 306 335 168 45 59 296 236 283 15 19 320 222 295 68 267 301 332 299 38 289 333 312 113 59 25 38 1 355
320 329 337 355 2 56 346 350 125 149 355 247 217 307 308 86 304 337 2 356 132 271 95 257 271 359 355 257 228 256 323 273 287 288 323 266 230 274 17 11 9 16 6 359 342
317 326 334 1 32 41 339 4 313 36 258 357 339 345 13 31 356 312 20 39 97 86 36 250 8 67 177 125 68 286 332 294 322 0 278 171 115 306 60 352 8 359 360 355 347
313 324 321 338 122 344 8 82 19 164 328 251 249 54 56 292 345 26 41 13 36 3 13 334 24 68 15 30 355 20 16 320 342 338 252 351 333 224 62 59 355 2 353 351 339
309 320 292 275 321 30 132 45 191 241 248 34 343 230 222 8 268 351 94 115 19 67 138 150 321 159 6 110 220 312 141 140 294 270 299 314 226 276 40 14 3 1 345 338 330
306 303 265 230 207 157 82 122 219 213 223 339 329 328 268 258 259 31 115 156 200 209 202 263 262 75 70 296 133 41 61 259 280 353 336 252 264 302 19 353 349 337 336 324 318
300 281 225 202 157 137 93 224 229 194 131 102 177 206 250 215 235 227 196 172 185 200 281 169 298 360 259 124 26 123 117 55 32 316 289 285 303 264 343 336 331 331 326 321 318
220 27 185 160 147 68 197 222 245 211 159 175 199 245 226 213 214 213 217 125 164 74 50 121 157 262 234 168 153 113 104 132 194 192 222 293 294 310 323 316 327 321 316 313 313
162 234 171 157 107 187 196 200 186 199 188 243 193 210 200 179 203 240 222 58 160 143 135 322 137 265 240 293 186 120 162 166 147 267 238 276 274 283 286 325 317 318 313 312 312
201 206 181 175 208 222 242 244 207 177 199 193 219 196 127 177 218 192 131 101 149 153 164 172 159 330 347 22 317 165 181 192 218 264 257 251 266 301 312 312 320 318 317 312 314
141 218 216 235 132 214 192 224 219 206 219 174 157 114 128 193 196 185 144 197 201 215 149 146 202 207 226 249 128 269 256 257 205 244 269 257 288 299 309 318 325 322 319 314 315
160 224 194 198 218 215 185 179 198 195 186 161 223 202 175 183 177 196 135 151 195 189 161 166 231 229 252 271 264 267 271 272 253 249 257 283 288 297 309 320 324 322 316 314 314
165 167 224 272 147 198 199 203 214 188 169 191 217 203 191 186 191 185 154 178 181 142 153 178 270 317 265 244 251 256 260 266 266 266 270 276 286 307 313 320 326 326 316 317 318
183 138 166 188 163 183 214 213 207 160 217 196 209 161 191 215 152 155 137 159 152 156 160 160 214 38 267 339 303 275 232 229 254 243 240 286 303 319 321 324 325 320 308 322 322